Theta_e
312 312 312 313 313 314 315 315 316 317 320 318 317 318 318 318 318 314 306 313 314 322 314 307 305 304 304 302 303 303 295 294 296 297 298 301 298 301 301 300 300 303 303 306 312
311 312 312 311 312 313 314 314 315 318 318 320 317 318 318 318 312 306 316 322 319 323 306 303 301 302 299 300 300 297 295 297 302 302 299 301 299 301 298 299 299 300 302 306 311
311 311 312 311 311 312 313 314 315 317 319 320 319 318 318 316 304 304 315 319 319 320 308 306 305 301 298 301 298 298 295 302 301 301 300 299 298 300 298 298 301 300 301 304 307
310 311 312 311 310 312 312 312 313 316 319 321 320 320 317 312 293 306 316 316 323 312 305 302 301 298 297 296 300 294 299 300 301 301 297 297 300 298 299 301 304 304 304 304 304
308 309 310 310 310 311 311 311 311 313 315 319 321 319 312 304 302 311 322 322 317 309 302 301 298 298 296 299 299 295 297 299 300 298 297 299 297 298 300 303 304 302 301 303 303
307 307 308 309 310 309 310 310 310 311 312 314 319 319 307 296 312 308 314 314 310 305 302 303 300 302 299 298 297 299 297 298 297 297 297 295 296 298 300 303 302 300 300 301 302
305 306 307 307 309 309 309 310 310 310 310 312 317 314 304 302 312 308 312 309 309 304 301 303 304 300 300 297 300 298 293 295 296 296 296 297 293 295 300 302 301 302 300 301 300
304 304 305 306 307 307 308 309 309 309 310 311 316 311 299 312 316 313 309 306 305 304 302 304 303 300 298 299 295 292 294 290 297 297 297 296 292 299 302 300 299 300 300 299 299
305 304 304 304 305 306 306 306 309 310 310 311 309 306 297 311 305 310 310 303 301 301 301 301 300 296 297 291 290 292 288 290 294 299 296 293 293 300 301 301 298 299 299 299 299
305 305 304 304 304 305 306 306 308 309 309 310 308 297 301 297 305 306 309 306 299 298 295 295 294 291 292 290 284 287 288 290 292 294 294 292 292 299 297 297 297 299 299 299 298
303 303 303 304 304 304 304 302 295 294 298 296 295 297 302 306 302 300 304 301 299 294 288 291 286 285 289 291 291 292 292 291 294 298 293 292 293 295 299 295 296 297 297 297 297
302 303 303 304 304 304 302 295 295 296 287 295 294 294 299 302 293 298 302 295 293 288 292 287 284 291 294 293 291 290 289 290 294 294 290 291 292 296 298 298 296 296 297 297 297
302 302 302 303 304 301 297 295 300 298 287 289 293 293 294 298 293 293 297 296 292 290 290 287 290 292 292 291 288 289 287 289 289 291 290 288 288 292 296 298 299 298 298 298 297
302 302 302 302 297 298 293 299 301 299 279 282 287 291 294 296 291 300 297 296 291 288 291 289 295 292 290 289 289 284 292 291 289 288 283 290 283 293 297 296 296 298 297 298 297
301 301 302 302 295 293 296 300 300 293 268 284 288 300 298 291 292 295 300 294 287 288 287 285 288 288 287 288 291 286 291 289 288 286 285 285 280 289 296 294 295 293 296 295 295
301 301 301 299 297 297 300 300 294 277 268 281 289 289 289 291 291 294 293 295 293 288 287 289 293 292 291 291 290 291 286 285 285 284 277 283 282 286 291 291 295 295 292 292 293
301 301 300 299 292 299 299 290 276 269 282 279 281 285 286 286 287 289 286 283 282 280 280 285 285 289 291 287 286 286 283 278 275 275 276 286 282 286 294 295 295 295 290 290 292
301 301 299 298 300 299 293 279 269 276 277 283 282 284 281 285 286 285 284 282 285 287 285 281 278 285 288 288 284 284 284 280 273 275 278 281 280 286 290 286 286 289 290 290 290
301 299 296 298 299 297 285 272 272 277 281 279 281 279 279 283 282 284 283 283 286 286 281 281 281 288 288 291 289 283 282 288 279 277 278 279 282 288 288 284 283 286 288 288 289
295 292 292 298 299 292 278 275 278 283 283 281 275 280 276 279 280 282 282 286 285 288 290 286 280 287 287 288 287 285 289 279 281 274 274 280 281 285 284 285 284 283 287 288 289
293 286 294 298 297 285 276 277 280 284 283 280 278 277 278 277 280 278 281 285 288 287 288 285 284 282 283 282 283 283 282 284 285 282 278 278 284 285 286 287 284 284 287 288 288
289 280 295 296 281 283 278 280 282 281 284 282 282 281 279 280 278 277 278 283 290 289 283 286 283 277 280 282 284 288 286 286 281 278 280 279 283 281 281 283 285 285 287 288 287
285 285 295 292 276 279 282 280 282 281 281 281 281 283 284 280 277 280 282 289 289 287 285 285 281 274 275 280 282 282 284 286 286 284 280 278 283 281 280 280 285 285 286 285 285
286 279 287 286 285 280 278 279 279 284 282 283 282 284 281 279 282 278 280 285 288 288 290 287 283 280 276 278 283 279 282 283 284 280 282 282 285 283 281 280 282 284 284 284 284
286 281 283 277 280 281 281 280 278 278 283 284 281 281 280 277 278 278 282 284 287 287 287 284 280 280 277 278 279 280 281 282 281 282 280 284 282 286 285 283 282 284 284 283 283
282 282 285 281 282 281 281 279 278 280 281 279 279 281 282 278 280 277 279 282 282 285 285 285 280 278 276 276 278 278 280 282 282 283 283 277 279 284 279 282 282 283 283 282 282
290 289 284 281 281 279 279 280 280 282 283 284 283 281 280 282 285 285 287 286 284 284 282 283 280 277 276 275 277 275 278 280 282 284 284 280 285 284 282 281 282 283 283 283 283
Wind_Speed
21 20 22 21 20 21 21 21 22 22 19 14 14 14 14 17 17 12 14 9 6 13 6 8 8 9 10 10 8 5 9 12 19 15 10 6 8 7 1 6 5 7 3 6 13
23 23 21 21 21 21 22 23 23 23 21 15 14 14 13 14 18 21 15 12 8 15 12 15 14 12 9 10 7 12 11 17 17 12 7 7 10 8 8 11 11 11 6 9 12
24 24 23 20 21 22 23 23 25 25 20 18 15 13 11 12 12 9 6 11 13 18 14 14 9 13 16 11 11 9 17 16 12 10 10 11 10 8 9 13 13 15 15 12 14
23 25 21 20 21 21 23 24 25 27 26 18 17 13 5 6 9 5 5 8 13 14 10 9 11 15 12 17 18 14 18 18 11 11 8 14 10 10 16 16 2 8 4 16 16
23 24 24 22 21 22 24 25 25 26 27 22 17 13 7 11 18 6 2 8 13 14 16 15 16 18 19 12 18 20 19 11 16 9 15 10 15 16 16 16 8 7 8 15 14
23 24 24 23 23 24 23 25 26 27 26 27 20 9 7 17 5 4 6 6 11 16 17 18 11 18 14 19 18 7 19 16 13 17 12 15 18 14 16 17 17 14 15 13 13
22 24 25 25 25 25 26 27 28 29 29 28 23 11 11 22 5 3 7 10 11 13 16 16 18 9 8 16 16 13 14 12 16 16 16 13 21 26 23 11 15 20 17 15 13
22 23 24 24 25 26 27 30 29 30 29 27 24 12 15 7 19 21 11 12 10 11 12 9 10 15 17 4 2 11 16 20 16 21 9 13 22 21 25 21 19 17 16 13 15
23 23 25 26 26 27 27 29 29 33 28 23 16 10 11 4 15 22 22 15 11 9 8 5 8 12 11 13 12 15 14 20 20 11 14 18 17 17 7 14 18 18 17 15 14
25 25 26 26 27 28 29 30 28 31 13 7 3 6 6 9 11 9 19 19 10 11 7 9 9 11 16 16 18 15 17 20 17 12 17 17 23 9 8 12 16 17 17 17 16
25 24 26 27 27 28 22 17 10 8 3 12 13 13 19 8 2 9 12 17 15 13 15 14 10 21 28 25 20 21 20 21 19 15 14 20 22 21 17 13 15 17 18 17 17
26 26 26 26 26 27 18 10 18 11 12 18 22 25 22 16 6 13 14 16 16 20 21 7 22 30 20 20 23 23 22 27 18 4 7 15 23 20 21 20 21 19 18 19 16
25 25 26 27 25 16 10 16 5 15 8 18 24 25 30 17 14 11 15 18 19 23 21 24 26 21 22 20 22 24 24 22 20 6 11 13 24 22 24 24 22 22 19 20 20
25 25 26 27 14 10 14 10 8 9 9 18 13 13 23 26 19 22 14 11 7 14 26 18 30 22 24 27 25 24 24 21 17 10 13 8 16 18 19 27 25 21 20 18 18
26 25 25 21 13 14 15 10 6 2 11 9 14 2 3 26 14 19 24 19 11 12 7 15 19 23 18 30 26 20 13 13 17 16 12 16 8 17 16 22 21 19 19 17 15
27 26 26 14 10 16 14 9 5 8 12 6 3 0 6 13 12 2 15 8 4 12 8 16 7 17 22 18 19 2 3 3 1 4 10 19 13 28 19 12 17 17 16 16 18
28 27 23 13 15 14 7 4 9 10 10 8 18 14 5 6 7 10 10 12 12 9 14 9 7 2 5 10 5 12 10 5 6 7 8 11 15 25 8 6 8 12 17 16 16
30 30 18 13 13 12 3 5 19 10 12 17 22 18 12 5 7 4 8 18 21 20 13 16 11 14 11 11 12 25 20 9 10 8 8 5 13 13 1 3 3 1 11 16 18
32 13 11 12 10 4 5 13 12 14 17 15 17 19 17 16 7 6 7 5 8 22 15 10 13 11 21 13 18 8 15 6 3 1 1 7 7 17 9 6 6 5 16 17 16
11 11 12 8 3 6 7 23 13 16 19 15 17 7 7 7 7 7 6 6 5 11 23 9 15 15 9 5 2 7 13 6 5 6 7 9 7 13 8 10 10 12 17 16 15
6 5 3 4 3 4 9 12 11 15 15 6 14 20 20 20 9 7 6 7 8 5 11 3 6 5 10 11 18 8 7 6 2 4 5 3 5 1 1 9 14 13 15 16 14
3 7 4 3 5 5 8 4 3 7 9 12 14 17 15 12 15 13 16 17 7 4 4 7 3 3 8 5 4 14 7 14 8 8 5 3 8 1 2 3 10 15 14 12 11
4 8 5 3 6 8 11 7 6 7 11 5 5 6 4 9 6 8 11 6 11 6 5 4 4 5 0 1 0 6 7 12 2 2 12 8 6 1 1 2 3 13 12 11 12
3 6 4 4 6 14 15 13 8 8 12 10 11 12 10 9 10 10 14 9 4 9 11 4 4 6 6 1 3 9 15 13 11 7 8 10 3 2 3 6 7 10 11 12 10
2 4 3 7 8 15 16 12 17 7 7 4 4 8 11 6 4 9 13 11 4 6 6 5 5 4 2 1 4 2 12 16 16 19 11 11 14 1 4 5 9 7 10 12 12
3 5 3 11 13 14 14 5 13 13 4 6 10 11 8 9 10 16 17 12 10 6 4 4 2 4 3 2 4 5 9 16 20 19 18 2 4 2 4 5 9 10 10 12 11
2 2 4 9 12 9 8 6 7 6 8 11 9 9 9 10 7 13 11 9 8 5 6 4 4 4 3 1 3 7 11 13 13 13 16 16 7 4 5 5 7 9 10 10 9
Wind_Direction
358 354 346 344 341 336 334 332 325 317 305 295 300 305 311 311 304 262 248 249 211 167 205 169 206 206 219 221 237 251 240 236 243 249 248 138 215 172 64 249 204 185 299 77 125
353 349 344 341 338 338 335 334 328 320 304 282 287 293 304 318 299 271 246 234 199 170 194 188 193 192 208 225 211 214 233 237 250 262 243 214 230 204 213 203 216 195 142 138 151
355 348 339 343 337 337 334 333 332 327 305 283 271 275 289 314 290 263 45 232 204 180 211 214 224 199 231 222 220 214 240 241 247 254 255 239 221 204 223 234 223 215 184 177 177
357 352 346 342 341 338 336 334 334 331 331 285 262 265 260 295 265 33 357 182 173 188 207 201 217 200 228 222 227 254 243 258 261 222 223 224 233 221 231 233 310 245 220 176 192
355 355 350 345 338 337 335 334 330 330 327 314 258 266 236 240 250 319 312 155 172 184 206 205 211 214 228 234 248 234 255 244 239 228 228 244 237 236 244 237 202 205 184 188 200
352 350 348 344 337 334 332 331 327 325 323 318 282 242 224 249 288 291 223 190 213 205 211 211 219 222 259 250 235 215 247 244 241 232 231 230 241 239 245 239 226 216 212 209 211
351 348 344 340 332 329 329 325 323 319 315 312 301 234 227 240 225 246 214 229 228 233 230 222 226 226 212 255 238 248 254 239 238 233 234 234 254 233 240 217 233 226 221 218 216
349 347 339 336 331 327 325 319 313 310 303 302 298 241 250 213 243 245 228 235 227 229 251 251 226 239 246 290 210 233 236 250 232 214 214 194 255 224 231 228 224 228 221 211 205
344 343 340 335 330 328 321 317 309 297 293 288 279 230 253 117 228 233 217 215 205 212 224 246 206 224 189 222 232 219 242 228 241 213 188 209 262 250 182 203 216 219 215 207 208
339 337 332 332 330 327 321 316 299 287 278 255 223 274 211 216 221 239 218 216 195 180 188 199 207 217 217 208 219 218 219 242 239 178 209 215 245 234 199 222 224 220 219 217 215
331 332 328 324 324 325 324 314 327 311 27 276 295 269 295 221 207 209 184 194 204 195 197 193 208 216 220 219 230 242 244 239 244 243 211 234 244 243 228 216 228 218 213 212 214
335 334 328 321 319 320 307 300 329 320 280 273 263 271 253 271 277 230 180 186 194 209 209 167 221 228 234 238 232 240 248 253 260 183 225 260 255 249 248 230 222 224 217 215 208
332 334 332 322 323 303 328 310 342 346 267 271 253 253 253 226 225 227 200 206 205 220 207 205 224 218 234 230 238 229 233 239 248 184 241 279 273 252 244 242 237 221 223 215 211
328 331 330 326 308 329 305 340 330 358 272 268 236 250 227 220 243 202 195 218 228 225 220 226 245 237 219 224 219 231 226 237 237 243 246 181 277 257 244 227 226 227 220 224 207
326 326 324 323 298 290 301 323 332 322 266 268 220 20 324 209 207 204 194 209 199 195 159 208 234 221 216 223 209 236 232 238 234 234 247 238 258 257 236 241 220 222 218 216 198
321 319 318 311 294 280 294 295 294 232 249 276 293 241 270 206 238 282 179 185 265 224 203 247 290 219 208 223 220 115 88 75 150 205 230 221 208 270 242 235 227 212 206 197 191
319 315 310 294 284 294 286 294 251 234 329 258 264 258 254 275 242 200 183 178 183 191 204 192 206 205 220 192 133 160 154 200 203 206 230 191 204 240 262 240 261 217 181 181 171
318 312 291 279 284 279 254 228 255 257 255 280 300 293 273 298 252 218 213 202 216 225 240 217 207 167 186 193 179 191 193 205 216 200 216 175 207 240 17 126 34 353 165 164 173
317 300 280 279 272 242 217 245 244 253 256 278 297 283 278 260 209 271 225 262 227 213 223 228 234 180 177 187 167 161 211 223 134 210 196 189 259 283 185 185 185 171 168 174 173
305 292 283 288 277 206 246 230 245 256 279 293 277 269 277 324 286 221 205 177 232 222 232 246 255 197 163 138 297 204 158 173 211 184 223 209 244 240 185 203 186 182 181 174 166
335 309 11 66 143 217 246 265 259 266 270 274 263 264 269 284 293 341 306 297 222 199 222 278 255 116 142 204 176 171 168 202 213 223 217 239 231 341 299 199 184 181 174 168 159
288 299 80 160 280 239 254 211 189 252 265 246 255 261 272 284 292 289 254 238 182 185 211 201 329 173 231 359 326 237 199 193 202 192 247 345 257 38 12 357 163 166 160 150 148
283 289 155 216 280 285 291 246 235 236 243 252 278 271 234 270 279 303 296 312 284 221 239 155 203 164 75 288 291 218 196 217 186 77 200 200 250 98 175 154 139 155 147 141 141
279 297 238 215 256 270 284 287 262 230 260 250 263 282 285 257 247 262 277 301 307 248 255 173 229 255 232 335 140 205 202 204 205 205 189 219 215 160 188 165 161 149 148 144 152
218 264 299 289 291 302 296 282 280 279 219 234 250 249 271 275 275 253 270 297 221 244 225 230 248 210 105 30 309 295 209 197 212 220 208 242 229 117 127 182 172 148 144 151 163
269 292 268 285 280 285 291 283 295 298 224 263 235 274 254 267 274 296 292 291 278 189 222 199 217 156 213 175 236 241 231 206 212 228 238 94 282 70 86 107 152 176 172 176 179
234 274 278 286 293 288 294 299 301 327 274 256 293 300 281 273 285 290 270 278 268 296 211 216 184 171 162 172 203 256 234 200 218 231 231 230 222 158 176 146 185 189 180 187 174